Showing default

EUTE 65W, 41382

Orbit data source: Space-Track

EUTE 65W, 41382 is a payload satellite owned by EutelsatSA (FR) in GEO that was launched on Wed, 09 Mar 2016 UTC via an ARIANE 5ECA launch vehicle from the French Guiana (FRGUI). Payload-class satellites include a variety of spacecraft equipped with specific instruments for various scientific and technological missions. These include communications satellites like Starlink; space stations such as the ISS; scientific satellites like the Hubble; Earth observation satellites from companies like Planet Labs, Umbra, and HawkEye 360; GPS; miniature CubeSats for education and research; and military/defense satellites.

Loading next visibility...
Identifier
41382, 2016-014A
Orbit
GEO
Country
Flag of FRFR / EUTE
Related business
Manufacturer
SS/Loral (MDA)
Mission
Operational Commercial Communications
Bus & Motor
SSL-1300, R-4D?
Mass
6,564 kg wet, ~3,500 kg dry
Launch date (UTC)
2016-03-09 (10 years ago)
Launch vehicle
ARIANE 5ECA
Launch site
French Guiana (FRGUI)
Object type
Payload
Rocket body
Debris
Shape & HBR
Box + 2 Pan, 13.0 m
Radar Cross Section
49.949 m², Large (>1 m²)

Expand to show TLE details & history
Last TLE update: 14 hours ago

TLE from 14 hours ago
0 EUTE 65W
1 41382U 16014A   26127.23006361 -.00000268  00000-0  00000-0 0  9996
2 41382   0.0737  45.7416 0002382   3.8993 193.0479  1.00269421 37111
Epoch: 2026-05-07T05:31Z
TLE epoch observation values (Epoch: 2026-05-07T05:31:17.495Z)
Latitude
-0.03473°
Longitude
-65.22635°
Altitude
35,796.58 km
Speed
3.074 km/s
True Right ascension
16h 10m 42s
True Declination
0° 02' 05"
Sunlit
Object was in daylight at epoch
Visualization orbit readout
Latitude
Unknown
Longitude
Unknown
Altitude
Unknown
Speed
Unknown
Apparent Right ascension
Unknown
Apparent Declination
Unknown
Sunlit
N/A
Visualization observer readout
Local Sidereal Time
03:23:19
Azimuth
Unknown
Elevation
Unknown
Doppler factor
Unknown
Orbital elements
Apogee altitude
35,798.372 km
Perigee altitude
35,778.284 km
Semi-major axis
42,166.465 km
Eccentricity
0.00024
Inclination
0.0737°
RAAN
45.7416°
Arg. of periapsis
3.8993°
True anomaly
193.04174°
Mean anomaly
193.0479°
Eccentric anomaly
193.04482°
Mean motion
0.25066 °/min
Orbital period
1,436.18 mins
BSTAR
0
Loading maneuver chart data...
Computing Atmospheric mass density...
Loading historical data...
Loading historical data...
Loading historical data...
Loading historical data...
Loading historical data...
Loading historical data...
Loading historical data...
Other satellites on launch #14 in the year 2016 (2016-03-09 UTC)

Documentation

Showing up to 5 results
|